Woodinville, Washington, United States (98072)
Lat: 47.75N, Lon: 122.16W
Wx Zone: WAZ505
Local Info
Past Weather Observations for Yesterday

NOTE: This archive is for the closest National Weather Service station to Woodinville. Information may differ from the station used for current weather conditions.

Click here for Long-term Archive

Time Weather Temperature Dewpoint Humidity Pressure Winds Precip Visibility
23:53
Mostly Cloudy
54°F / 12°C 52°F / 11°C 94% 30.01 in
(1016 mb)
SSE 8.1 mph
(SSE 13 kph)
- 10SM
22:53
Mostly Cloudy
54°F / 12°C 52°F / 11°C 94% 29.98 in
(1015 mb)
Calm - 10SM
21:53
Mostly Cloudy
55°F / 13°C 52°F / 11°C 88% 29.98 in
(1015 mb)
ESE 5.8 mph
(ESE 9 kph)
0.01 in
(0.25 mm)
10SM
20:53
Overcast
Light Rain
55°F / 13°C 50°F / 10°C 82% 29.98 in
(1015 mb)
E 4.6 mph
(E 7 kph)
0.00 in
(0.00 mm)
10SM
19:53
Overcast
Light Rain
55°F / 13°C 52°F / 11°C 88% 29.95 in
(1014 mb)
E 5.8 mph
(E 9 kph)
0.00 in
(0.00 mm)
10SM
18:53
Overcast
Light Rain
55°F / 13°C 52°F / 11°C 88% 29.92 in
(1013 mb)
N 6.9 mph
(N 11 kph)
0.00 in
(0.00 mm)
10SM
17:53
Overcast
55°F / 13°C 52°F / 11°C 88% 29.92 in
(1013 mb)
N 5.8 mph
(N 9 kph)
- 10SM
16:53
Overcast
57°F / 14°C 55°F / 13°C 94% 29.92 in
(1013 mb)
W 5.8 mph
(W 9 kph)
0.03 in
(0.76 mm)
10SM
16:34
Overcast
Light Rain
57°F / 14°C 55°F / 13°C 94% 29.92 in
(1013 mb)
W 11.5 mph
(W 19 kph)
0.03 in
(0.76 mm)
2SM
16:19
Overcast
Fog And Mist
59°F / 15°C 55°F / 13°C 88% 29.89 in
(1012 mb)
SSW 6.9 mph
(SSW 11 kph)
0.01 in
(0.25 mm)
6SM
16:12
Overcast
Light Rain
59°F / 15°C 55°F / 13°C 88% 29.89 in
(1012 mb)
SSW 8.1 mph
(SSW 13 kph)
0.01 in
(0.25 mm)
4SM
16:07
Overcast
Light Rain
59°F / 15°C 55°F / 13°C 88% 29.89 in
(1012 mb)
SW 8.1 mph
(SW 13 kph)
0.01 in
(0.25 mm)
2 1/2SM
15:53
Overcast
Light Rain
57°F / 14°C 55°F / 13°C 94% 29.89 in
(1012 mb)
SW 5.8 mph
(SW 9 kph)
0.03 in
(0.76 mm)
1 1/4SM
15:36
Overcast
Light Rain
59°F / 15°C 55°F / 13°C 88% 29.89 in
(1012 mb)
SSE 9.2 mph
(SSE 15 kph)
0.00 in
(0.00 mm)
2 1/2SM
14:53
Overcast
61°F / 16°C 55°F / 13°C 83% 29.89 in
(1012 mb)
S 11.5 mph
(S 19 kph)
- 10SM
13:53
Overcast
61°F / 16°C 54°F / 12°C 77% 29.89 in
(1012 mb)
SSE 12.7 mph
(SSE 20 kph)
- 10SM
12:53
Overcast
59°F / 15°C 54°F / 12°C 82% 29.89 in
(1012 mb)
SSE 13.8 mph
(SSE 22 kph)
- 10SM
12:50
Overcast
57°F / 14°C 54°F / 12°C 88% 29.89 in
(1012 mb)
SSE 11.5 mph
(SSE 19 kph)
- 10SM
11:53
Overcast
57°F / 14°C 54°F / 12°C 88% 29.92 in
(1013 mb)
SSE 12.7 mph
(SSE 20 kph)
- 10SM
10:53
Overcast
Fog And Mist
55°F / 13°C 54°F / 12°C 94% 29.92 in
(1013 mb)
S 8.1 mph
(S 13 kph)
- 3SM
09:53
Overcast
Fog And Mist
55°F / 13°C 54°F / 12°C 94% 29.92 in
(1013 mb)
SSE 9.2 mph
(SSE 15 kph)
0.01 in
(0.25 mm)
2SM
09:02
Overcast
Fog And Mist
54°F / 12°C 52°F / 11°C 94% 29.92 in
(1013 mb)
S 8.1 mph
(S 13 kph)
- 2SM
08:56
Overcast
Fog And Mist
54°F / 12°C 54°F / 12°C 100% 29.92 in
(1013 mb)
SSE 9.2 mph
(SSE 15 kph)
- 3SM
08:53
Overcast
Fog And Mist
54°F / 12°C 52°F / 11°C 94% 29.92 in
(1013 mb)
S 10.4 mph
(S 17 kph)
0.00 in
(0.00 mm)
1 1/2SM
08:38
Overcast
Fog And Mist
54°F / 12°C 52°F / 11°C 94% 29.92 in
(1013 mb)
S 10.4 mph
(S 17 kph)
0.00 in
(0.00 mm)
1 1/2SM
08:17
Overcast
Fog And Mist
54°F / 12°C 52°F / 11°C 94% 29.92 in
(1013 mb)
S 10.4 mph
(S 17 kph)
0.00 in
(0.00 mm)
1 1/2SM
08:03
Overcast
Light Rain
54°F / 12°C 54°F / 12°C 100% 29.92 in
(1013 mb)
S 10.4 mph
(S 17 kph)
0.00 in
(0.00 mm)
1 1/2SM
07:53
Obscured
Fog
54°F / 12°C 54°F / 12°C 100% 29.92 in
(1013 mb)
S 6.9 mph
(S 11 kph)
- 1/4SM
07:16
Obscured
Fog
54°F / 12°C 54°F / 12°C 100% 29.92 in
(1013 mb)
S 9.2 mph
(S 15 kph)
- 1/2SM
06:53
Obscured
Fog
54°F / 12°C 54°F / 12°C 100% 29.92 in
(1013 mb)
S 5.8 mph
(S 9 kph)
- 1/4SM
05:53
Obscured
Fog
54°F / 12°C 54°F / 12°C 100% 29.92 in
(1013 mb)
S 4.6 mph
(S 7 kph)
- 1/4SM
05:27
Obscured
Fog
54°F / 12°C 52°F / 11°C 94% 29.92 in
(1013 mb)
SSE 6.9 mph
(SSE 11 kph)
- 1/4SM
05:20
Overcast
Fog
52°F / 11°C 52°F / 11°C 100% 29.92 in
(1013 mb)
S 5.8 mph
(S 9 kph)
- 1/4SM
05:11
Overcast
Fog And Mist
52°F / 11°C 52°F / 11°C 100% 29.92 in
(1013 mb)
S 5.8 mph
(S 9 kph)
- 1 3/4SM
05:04
Overcast
Fog And Mist
52°F / 11°C 52°F / 11°C 100% 29.92 in
(1013 mb)
S 6.9 mph
(S 11 kph)
- 3/4SM
04:53
Obscured
Fog
52°F / 11°C 52°F / 11°C 100% 29.92 in
(1013 mb)
S 5.8 mph
(S 9 kph)
- 1/4SM
04:40
Obscured
Fog
54°F / 12°C 52°F / 11°C 94% 29.92 in
(1013 mb)
S 5.8 mph
(S 9 kph)
- 1/4SM
04:37
Obscured
Fog
54°F / 12°C 52°F / 11°C 94% 29.92 in
(1013 mb)
S 4.6 mph
(S 7 kph)
- 1/2SM
04:28
Overcast
Fog And Mist
54°F / 12°C 52°F / 11°C 94% 29.92 in
(1013 mb)
SSE 8.1 mph
(SSE 13 kph)
- 1 3/4SM
04:17
Mostly Cloudy
Fog And Mist
54°F / 12°C 52°F / 11°C 94% 29.92 in
(1013 mb)
SSE 5.8 mph
(SSE 9 kph)
- 3SM
04:14
Overcast
Fog And Mist
52°F / 11°C 52°F / 11°C 100% 29.92 in
(1013 mb)
SSE 3.5 mph
(SSE 6 kph)
- 2SM
04:10
Overcast
Fog And Mist
52°F / 11°C 52°F / 11°C 100% 29.92 in
(1013 mb)
SSE 5.8 mph
(SSE 9 kph)
- 1 1/4SM
04:03
Obscured
Fog And Mist
52°F / 11°C 52°F / 11°C 100% 29.92 in
(1013 mb)
Calm - 3/4SM
03:53
Obscured
Fog
52°F / 11°C 52°F / 11°C 100% 29.92 in
(1013 mb)
Calm - 1/2SM
03:46
Obscured
Fog
52°F / 11°C 52°F / 11°C 100% 29.92 in
(1013 mb)
Calm - 1/2SM
03:26
Obscured
Fog And Mist
54°F / 12°C 52°F / 11°C 94% 29.92 in
(1013 mb)
Calm - 3/4SM
03:14
Obscured
Fog And Mist
52°F / 11°C 52°F / 11°C 100% 29.92 in
(1013 mb)
S 3.5 mph
(S 6 kph)
- 1SM
03:03
Obscured
Fog And Mist
54°F / 12°C 52°F / 11°C 94% 29.92 in
(1013 mb)
Calm - 3/4SM
02:53
Obscured
Fog
54°F / 12°C 52°F / 11°C 94% 29.92 in
(1013 mb)
Calm - 1/2SM
02:43
Obscured
Fog
54°F / 12°C 52°F / 11°C 94% 29.92 in
(1013 mb)
SSE 3.5 mph
(SSE 6 kph)
- 1/4SM
02:34
Obscured
Fog
54°F / 12°C 52°F / 11°C 94% 29.92 in
(1013 mb)
Calm - 1/2SM
02:27
Obscured
Fog And Mist
54°F / 12°C 52°F / 11°C 94% 29.92 in
(1013 mb)
SE 3.5 mph
(SE 6 kph)
- 1SM
02:20
Obscured
Fog And Mist
54°F / 12°C 52°F / 11°C 94% 29.92 in
(1013 mb)
ESE 5.8 mph
(ESE 9 kph)
- 1SM
02:10
Obscured
Fog
54°F / 12°C 54°F / 12°C 100% 29.92 in
(1013 mb)
Calm - 1/2SM
01:55
Obscured
Fog And Mist
54°F / 12°C 54°F / 12°C 100% 29.92 in
(1013 mb)
SSE 5.8 mph
(SSE 9 kph)
- 3/4SM
01:53
Partly Cloudy
Fog And Mist
54°F / 12°C 54°F / 12°C 100% 29.92 in
(1013 mb)
SSE 5.8 mph
(SSE 9 kph)
- 1 1/4SM
01:50
Partly Cloudy
Fog And Mist
54°F / 12°C 54°F / 12°C 100% 29.92 in
(1013 mb)
SSE 4.6 mph
(SSE 7 kph)
- 2 1/2SM
00:53
Clear
55°F / 13°C 52°F / 11°C 88% 29.92 in
(1013 mb)
SSE 3.5 mph
(SSE 6 kph)
- 8SM
Time Weather Temperature Dewpoint Humidity Pressure Winds Precip Visibility


Weather for websites

WeatherForYou.com, LLC is not responsible for any damages or problems caused by this service. Current weather conditions are obtained from the closest station including government and personal stations which may have varying degrees of accuracy. Weather forecasts are derived from the NOAA NDFD. Like all things, this site belongs to Jesus Christ... He just trusts me to maintain it. If you have any questions or comments email webmaster@weatherforyou.com

Copyright © 2014, WeatherForYou.com LLC. All rights reserved.